WEATHER DATA

TODAY
Time Temp. Dewp. Hum. Bar. 1h Prec. 24h Prec.
00:00 4.9 3.4 90 1005.7 0.0000 0.0000
00:10 4.9 3.4 90 1005.6 0.0000 0.0000
00:20 4.9 3.4 90 1005.4 0.0000 0.0000
00:30 5 3.5 90 1005.3 0.0000 0.0000
00:40 5.1 3.6 90 1005.3 0.0000 0.0000
00:51 5.1 3.6 90 1005.3 0.0000 0.0000
01:00 5.2 3.7 90 1005.3 0.0000 0.0000
01:11 5.2 3.7 90 1005.2 0.0000 0.0000
01:21 5.3 3.8 90 1005.1 0.0000 0.0000
01:31 5.3 3.8 90 1005 0.0000 0.0000
01:41 5.3 3.8 90 1004.7 0.0000 0.0000
01:51 5.3 3.8 90 1004.5 0.0000 0.0000
02:01 5.3 3.8 90 1004.3 0.0000 0.0000
02:11 5.3 3.8 90 1004.3 0.0000 0.0000
02:21 5.3 3.8 90 1004.2 0.0000 0.0000
02:32 5.3 3.8 90 1004 0.0000 0.0000
02:41 5.3 3.8 90 1003.8 0.0000 0.0000
02:51 5.3 3.8 90 1003.6 0.0000 0.0000
03:02 5.4 3.9 90 1003.5 0.0000 0.0000
03:12 5.4 3.9 90 1003.4 0.0000 0.0000
03:21 5.4 3.9 90 1003.3 0.0000 0.0000
03:31 5.4 3.9 90 1003.1 0.0000 0.0000
03:42 5.4 3.9 90 1003 0.0000 0.0000
03:52 5.3 3.8 90 1002.9 0.0000 0.0000
04:02 5.3 3.8 90 1002.8 0.0000 0.0000
04:13 5.3 3.8 90 1002.6 0.0000 0.0000
04:22 5.3 3.8 90 1002.5 0.0000 0.0000
04:32 5.3 3.8 90 1002.5 0.0000 0.0000
04:42 5.3 3.8 90 1002.3 0.0000 0.0000
04:53 5.4 3.9 90 1002.3 0.0000 0.0000
05:02 5.4 3.9 90 1002.2 0.0000 0.0000
05:12 5.4 3.9 90 1002.1 0.0000 0.0000
05:23 5.4 3.9 90 1001.9 0.0000 0.0000
05:33 5.4 3.9 90 1001.8 0.0000 0.0000
05:43 5.4 3.9 90 1001.7 0.1010 0.1000
05:53 5.4 3.9 90 1001.5 0.1010 0.1000
06:03 5.4 3.9 90 1001.4 0.1010 0.1000
06:11 5.4 3.9 90 1001.3 0.3030 0.3000
06:22 5.4 3.9 90 1001.2 0.4040 0.4000
06:32 5.4 3.9 90 1001.1 0.6060 0.6000
06:41 5.4 3.9 90 1001 0.6060 0.7000
06:51 5.4 4.1 91 1001 0.8080 0.9000
07:02 5.5 4.1 91 1000.8 1.0100 1.1000
07:12 5.5 4.1 91 1000.7 1.0100 1.3000
07:22 5.5 4.1 91 1000.8 1.0100 1.5000
07:32 5.6 4.2 91 1000.7 1.0100 1.7000
07:42 5.6 4.2 91 1000.6 1.1110 1.9000
07:52 5.6 4.2 91 1000.6 1.0100 2.0000
08:02 5.6 4.2 91 1000.6 1.0100 2.2000
08:13 5.5 4.1 91 1000.6 1.1110 2.4000
08:23 5.5 4.1 91 1000.5 1.0100 2.6000
08:32 5.5 4 90 1000.5 1.1110 2.9000
08:43 5.4 3.9 90 1000.4 1.0100 3.0000
08:53 5.4 4.1 91 1000.3 1.1110 3.2000
09:03 5.4 4.1 91 1000.1 1.1110 3.4000
09:13 5.5 4.1 91 1000.1 1.0100 3.5000
09:23 5.5 4.1 91 1000.1 0.9090 3.6000
09:32 5.5 4.1 91 1000 0.9090 3.8000
09:43 5.5 4.1 91 999.9 0.9090 3.9000
09:53 5.5 4.1 91 999.9 0.8080 4.0000
10:04 5.5 4.1 91 999.8 0.7070 4.1000
10:13 5.5 4 90 999.8 0.7070 4.2000
10:23 5.5 4 90 999.7 0.6060 4.2000
10:34 5.5 4 90 999.6 0.6060 4.4000
10:44 5.4 3.9 90 999.6 0.6060 4.5000
10:54 5.4 3.9 90 999.6 0.6060 4.6000
11:04 5.4 3.9 90 999.5 0.6060 4.7000
11:14 5.4 3.9 90 999.5 0.6060 4.8000
11:24 5.4 3.9 90 999.5 0.7070 4.9000
11:34 5.5 4 90 999.4 0.5050 4.9000
11:45 5.5 4 90 999.3 0.5050 5.1000
11:55 5.5 4.1 91 999.2 0.6060 5.3000
12:04 5.6 4.2 91 999 0.7070 5.5000
12:14 5.6 4.2 91 998.9 0.7070 5.6000
12:25 5.7 4.3 91 999 0.7070 5.7000
12:35 5.7 4.3 91 999.2 0.8080 5.8000
12:45 5.7 4.3 91 999.2 0.8080 5.9000
12:55 5.7 4.3 91 999.2 0.8080 6.1000
13:05 5.7 4.3 91 999.2 0.9090 6.4000
13:15 5.7 4.3 91 999.2 1.0100 6.6000
13:25 5.7 4.3 91 999.4 1.2120 6.9000
13:36 5.7 4.3 91 999.3 1.2120 7.0000
13:45 5.7 4.3 91 999.2 1.2120 7.1000
13:55 5.7 4.3 91 999.2 1.0100 7.1000
14:06 5.7 4.3 91 999.1 0.7070 7.1000
14:16 5.8 4.4 91 998.9 0.5050 7.1000
14:26 5.8 4.4 91 998.6 0.2020 7.1000
14:35 5.8 4.3 90 998.5 0.1010 7.1000
14:46 5.7 4.2 90 998.5 0.0000 7.1000
14:56 5.7 4.2 90 998.3 0.0000 7.1000
15:06 5.7 4.2 90 998.2 0.0000 7.1000
15:16 5.6 4.1 90 998.2 0.0000 7.1000
15:26 5.6 4.1 90 998.2 0.0000 7.1000
15:36 5.5 4 90 998.1 0.0000 7.1000
15:46 5.5 4 90 998.4 0.0000 7.1000
15:57 5.5 4 90 998.4 0.0000 7.1000
16:07 5.4 3.9 90 998.3 0.0000 7.1000
16:16 5.4 3.9 90 998.1 0.0000 7.1000
16:27 5.4 3.9 90 998.1 0.0000 7.1000
16:37 5.4 3.9 90 998 0.0000 7.1000
16:47 5.3 3.8 90 997.9 0.0000 7.1000
16:57 5.3 4 91 997.6 0.0000 7.1000
17:07 5.3 4 91 997.5 0.1010 7.2000
17:17 5.2 3.9 91 997.4 0.1010 7.2000

DAY STATISTIC

2022-10-05
TEMPERATURE
AVERAGE
5.4
HIGH
5.8
14:16
LOW
4.9
00:00
PRESSURE
AVERAGE
1000.9
HIGH
1005.7
00:00
LOW
997.4
17:17
DEWPOINT
AVERAGE
4.0
HIGH
4.4
14:16
LOW
3.4
00:00
HUMIDITY
AVERAGE
90
HIGH
91
06:51
LOW
90
00:00
PRECIPITATION
RAIN HOUR
1.2
RAIN DAY
7.2
TEMPERATURE (°C)
LOW
4.9
HIGH
5.8
AVERAGE
5.4
PRESSURE (hpa)
LOW
997.4
HIGH
1005.7
AVERAGE
1000.9
DEVICE